Previsão horária em Abobo Baoule

Hoje, 9 Maio, Domingo

Tempo Temperatura Precipitação Vento Pressão Humidade
00:00 +27°C° 0.1 mm 2 m/s 754 mmHg 87%
01:00 +27°C° 0 mm 2 m/s 753 mmHg 88%
02:00 +27°C° 0 mm 2 m/s 752 mmHg 88%
03:00 +26°C° 0 mm 2 m/s 752 mmHg 89%
04:00 +26°C° 0 mm 1 m/s 752 mmHg 90%
05:00 +26°C° 0 mm 1 m/s 752 mmHg 90%
06:00 +24°C° 0 mm 0 m/s 753 mmHg 91%
07:00 +27°C° 0 mm 1 m/s 753 mmHg 85%
08:00 +29°C° 0 mm 1 m/s 754 mmHg 78%
09:00 +31°C° 0 mm 1 m/s 754 mmHg 71%
10:00 +31°C° 0.8 mm 1 m/s 754 mmHg 72%
11:00 +31°C° 0.8 mm 1 m/s 754 mmHg 73%
12:00 +31°C° 0.8 mm 1 m/s 753 mmHg 74%
13:00 +31°C° 1.5 mm 2 m/s 753 mmHg 74%
14:00 +30°C° 1.5 mm 2 m/s 752 mmHg 75%
15:00 +30°C° 1.5 mm 2 m/s 751 mmHg 75%
16:00 +30°C° 0 mm 2 m/s 751 mmHg 76%
17:00 +29°C° 0 mm 3 m/s 751 mmHg 77%
18:00 +29°C° 0 mm 3 m/s 752 mmHg 78%
19:00 +28°C° 0 mm 3 m/s 752 mmHg 80%
20:00 +28°C° 0 mm 3 m/s 752 mmHg 81%
21:00 +28°C° 0 mm 3 m/s 752 mmHg 82%
22:00 +27°C° 0 mm 3 m/s 752 mmHg 84%
23:00 +27°C° 0 mm 2 m/s 752 mmHg 86%

Amanhã, 10 Maio, Segunda-feira

Tempo Temperatura Precipitação Vento Pressão Humidade
00:00 +27°C° 0 mm 2 m/s 752 mmHg 88%
01:00 +27°C° 0 mm 2 m/s 752 mmHg 88%
02:00 +27°C° 0 mm 2 m/s 752 mmHg 89%
03:00 +27°C° 0 mm 2 m/s 751 mmHg 90%
04:00 +26°C° 0 mm 1 m/s 752 mmHg 90%
05:00 +26°C° 0 mm 1 m/s 752 mmHg 91%
06:00 +26°C° 0 mm 1 m/s 752 mmHg 91%
07:00 +28°C° 0 mm 1 m/s 753 mmHg 83%
08:00 +30°C° 0 mm 1 m/s 753 mmHg 75%
09:00 +31°C° 0 mm 2 m/s 754 mmHg 67%
10:00 +32°C° 0.3 mm 2 m/s 753 mmHg 66%
11:00 +32°C° 0.3 mm 2 m/s 753 mmHg 66%
12:00 +33°C° 0.3 mm 3 m/s 753 mmHg 65%
13:00 +33°C° 0.7 mm 3 m/s 752 mmHg 66%
14:00 +33°C° 0.7 mm 3 m/s 752 mmHg 68%
15:00 +31°C° 0.7 mm 3 m/s 751 mmHg 69%
16:00 +31°C° 0.2 mm 3 m/s 751 mmHg 71%
17:00 +30°C° 0.2 mm 2 m/s 752 mmHg 73%
18:00 +29°C° 0.2 mm 2 m/s 752 mmHg 75%
19:00 +28°C° 0 mm 2 m/s 752 mmHg 78%
20:00 +28°C° 0 mm 2 m/s 752 mmHg 81%
21:00 +27°C° 0 mm 2 m/s 753 mmHg 84%
22:00 +27°C° 0 mm 2 m/s 753 mmHg 85%
23:00 +27°C° 0 mm 3 m/s 753 mmHg 86%

Depois de amanhã, 11 Maio, Terça-feira

Tempo Temperatura Precipitação Vento Pressão Humidade
00:00 +27°C° 0 mm 3 m/s 752 mmHg 87%
01:00 +27°C° 0 mm 2 m/s 752 mmHg 88%
02:00 +27°C° 0 mm 2 m/s 752 mmHg 89%
03:00 +27°C° 0 mm 1 m/s 752 mmHg 90%
04:00 +26°C° 0 mm 1 m/s 752 mmHg 90%
05:00 +26°C° 0 mm 1 m/s 753 mmHg 90%
06:00 +26°C° 0 mm 1 m/s 753 mmHg 91%
07:00 +28°C° 0 mm 1 m/s 753 mmHg 82%
08:00 +30°C° 0 mm 1 m/s 754 mmHg 74%
09:00 +31°C° 0 mm 2 m/s 754 mmHg 66%
10:00 +32°C° 0.2 mm 2 m/s 754 mmHg 64%
11:00 +34°C° 0.2 mm 2 m/s 754 mmHg 61%
12:00 +34°C° 0.2 mm 3 m/s 753 mmHg 59%
13:00 +34°C° 0.4 mm 3 m/s 753 mmHg 62%
14:00 +33°C° 0.4 mm 3 m/s 752 mmHg 64%
15:00 +33°C° 0.4 mm 3 m/s 752 mmHg 67%
16:00 +31°C° 0.3 mm 3 m/s 752 mmHg 71%
17:00 +30°C° 0.3 mm 3 m/s 752 mmHg 75%
18:00 +29°C° 0.3 mm 3 m/s 752 mmHg 79%
19:00 +28°C° 0 mm 2 m/s 753 mmHg 81%
20:00 +28°C° 0 mm 2 m/s 753 mmHg 83%
21:00 +28°C° 0 mm 2 m/s 753 mmHg 86%
22:00 +27°C° 0.2 mm 2 m/s 753 mmHg 87%
23:00 +27°C° 0.2 mm 2 m/s 753 mmHg 88%

12 Maio, Quarta-feira

Tempo Temperatura Precipitação Vento Pressão Humidade
00:00 +27°C° 0.2 mm 2 m/s 753 mmHg 89%
01:00 +27°C° 0.8 mm 2 m/s 753 mmHg 90%
02:00 +26°C° 0.8 mm 1 m/s 753 mmHg 91%
03:00 +26°C° 0.8 mm 1 m/s 753 mmHg 92%
04:00 +26°C° 0.3 mm 1 m/s 753 mmHg 92%
05:00 +26°C° 0.3 mm 1 m/s 753 mmHg 93%
06:00 +26°C° 0.3 mm 2 m/s 753 mmHg 93%
07:00 +27°C° 0.4 mm 2 m/s 754 mmHg 88%
08:00 +29°C° 0.4 mm 2 m/s 754 mmHg 82%
09:00 +30°C° 0.4 mm 2 m/s 755 mmHg 77%
10:00 +30°C° 0.8 mm 2 m/s 754 mmHg 75%
11:00 +31°C° 0.8 mm 2 m/s 754 mmHg 74%
12:00 +31°C° 0.8 mm 3 m/s 754 mmHg 72%
13:00 +31°C° 0.2 mm 3 m/s 753 mmHg 69%
14:00 +33°C° 0.2 mm 3 m/s 753 mmHg 66%
15:00 +33°C° 0.2 mm 3 m/s 752 mmHg 63%
16:00 +31°C° 0 mm 3 m/s 752 mmHg 66%
17:00 +30°C° 0 mm 3 m/s 752 mmHg 70%
18:00 +29°C° 0 mm 3 m/s 752 mmHg 74%
19:00 +29°C° 0 mm 3 m/s 752 mmHg 76%
20:00 +28°C° 0 mm 3 m/s 753 mmHg 79%
21:00 +27°C° 0 mm 3 m/s 753 mmHg 81%
22:00 +27°C° 0 mm 3 m/s 753 mmHg 82%
23:00 +27°C° 0 mm 3 m/s 753 mmHg 83%

13 Maio, Quinta-feira

Tempo Temperatura Precipitação Vento Pressão Humidade
00:00 +27°C° 0 mm 2 m/s 752 mmHg 84%
01:00 +27°C° 0 mm 2 m/s 752 mmHg 85%
02:00 +26°C° 0 mm 2 m/s 752 mmHg 86%
03:00 +26°C° 0 mm 2 m/s 752 mmHg 87%
04:00 +26°C° 0 mm 2 m/s 752 mmHg 87%
05:00 +26°C° 0 mm 1 m/s 752 mmHg 88%
06:00 +26°C° 0 mm 1 m/s 752 mmHg 88%
07:00 +28°C° 0 mm 2 m/s 753 mmHg 81%
08:00 +29°C° 0 mm 2 m/s 753 mmHg 73%
09:00 +31°C° 0 mm 2 m/s 754 mmHg 65%
10:00 +31°C° 0 mm 3 m/s 753 mmHg 63%
11:00 +33°C° 0 mm 3 m/s 753 mmHg 61%
12:00 +33°C° 0 mm 3 m/s 753 mmHg 59%
13:00 +33°C° 0 mm 3 m/s 752 mmHg 60%
14:00 +33°C° 0 mm 3 m/s 751 mmHg 60%
15:00 +33°C° 0 mm 4 m/s 751 mmHg 60%
16:00 +31°C° 0 mm 3 m/s 751 mmHg 64%
17:00 +30°C° 0 mm 3 m/s 751 mmHg 68%
18:00 +29°C° 0 mm 3 m/s 751 mmHg 73%
19:00 +29°C° 0 mm 3 m/s 751 mmHg 75%
20:00 +28°C° 0 mm 3 m/s 751 mmHg 77%
21:00 +28°C° 0 mm 3 m/s 752 mmHg 79%
22:00 +27°C° 0 mm 3 m/s 752 mmHg 81%
23:00 +27°C° 0 mm 3 m/s 752 mmHg 82%

14 Maio, Sexta-feira

Tempo Temperatura Precipitação Vento Pressão Humidade
00:00 +27°C° 0 mm 3 m/s 751 mmHg 84%
01:00 +27°C° 0 mm 3 m/s 751 mmHg 85%
02:00 +27°C° 0 mm 2 m/s 751 mmHg 85%
03:00 +27°C° 0 mm 2 m/s 751 mmHg 86%
04:00 +27°C° 0 mm 2 m/s 751 mmHg 87%
05:00 +26°C° 0 mm 2 m/s 752 mmHg 88%
06:00 +26°C° 0 mm 1 m/s 752 mmHg 88%
07:00 +28°C° 0 mm 2 m/s 752 mmHg 82%
08:00 +29°C° 0 mm 2 m/s 753 mmHg 75%
09:00 +30°C° 0 mm 2 m/s 753 mmHg 69%
10:00 +31°C° 0 mm 3 m/s 753 mmHg 66%
11:00 +33°C° 0 mm 3 m/s 753 mmHg 63%
12:00 +33°C° 0 mm 3 m/s 752 mmHg 59%
13:00 +33°C° 0 mm 3 m/s 752 mmHg 60%
14:00 +33°C° 0 mm 3 m/s 751 mmHg 60%
15:00 +33°C° 0 mm 4 m/s 750 mmHg 60%
16:00 +32°C° 0 mm 4 m/s 750 mmHg 64%
17:00 +30°C° 0 mm 4 m/s 750 mmHg 67%
18:00 +29°C° 0 mm 4 m/s 750 mmHg 71%
19:00 +29°C° 0 mm 3 m/s 751 mmHg 74%
20:00 +28°C° 0 mm 3 m/s 751 mmHg 77%
21:00 +28°C° 0 mm 3 m/s 752 mmHg 80%
22:00 +28°C° 0 mm 3 m/s 751 mmHg 81%
23:00 +27°C° 0 mm 3 m/s 751 mmHg 82%
Mostrar mais

Necessitamos do seu Consentimento

A Meteoprog e os seus Fornecedores de Serviços podem armazenar e aceder a dados pessoais como cookies, identificadores do dispositivo ou outras tecnologias semelhantes existentes no seu dispositivo e processar estes dados para personalizar conteúdos e anúncios, assim como funcionalidades nas redes sociais e análise de tráfego.

  • Armazenar e/ou aceder a informações no seu dispositivo

    Os cookies, identificadores do dispositivo ou outras informações podem ser armazenados ou acedidos no seu dispositivo, para os fins acima indicados.

  • Anúncios e conteúdos personalizados, medição de anúncios e conteúdos, dados sobre o público-alvo e desenvolvimento de produtos

    Os anúncios e os conteúdos podem ser personalizados com base num perfil. Podem ser adicionados dados adicionais para uma maior personalização dos anúncios e dos conteúdos. A eficácia dos anúncios e dos conteúdos pode ser medida. Podem ser obtidas informações sobre o público que visualizou os anúncios e os conteúdos. Estes dados podem ser usados para desenvolver ou melhorar sistemas, softwares ou a experiência do utilizador.

Ao clicar em "Eu concordo”, permitirá o uso de cookies, identificadores do dispositivo e web beacons mencionados ou outras tecnologias semelhantes. As configurações do navegador do seu dispositivo podem ser alteradas.

Para certos fins, podem ser invocados interesses legítimos ao invés de consentimento. Pode ler mais informação sobre este assunto na nossa Política de Privacidade e Cookies.